Overview Statistics Trail Chart Weather Telemetry Raw packets
 

This is the latest recevied weather packets stored in our database for station/object KC9DRE. If no packets are shown the sender has not sent any weather packets the latest 10 day(s).

<< 27 28 29 30 31 32 33 >>
Time Temp. Humidity Pressure Rain* Wind** Luminosity Snow
1777728226 6.67° C 89% 1018.8 hPa 0 mm - 65 W/m² -
1777727923 6.67° C 91% 1018.7 hPa 0 mm - 55 W/m² -
1777727620 6.67° C 92% 1018.7 hPa 0 mm - 63 W/m² -
1777727317 6.11° C 94% 1018.7 hPa 0 mm - 51 W/m² -
1777727015 6.11° C 96% 1018.5 hPa 0 mm - 48 W/m² -
1777726711 6.11° C 97% 1018.6 hPa 0 mm - 53 W/m² -
1777726409 6.11° C 97% 1018.5 hPa 0 mm - 62 W/m² -
1777726105 6.11° C 98% 1018.7 hPa 0 mm - 50 W/m² -
1777725802 6.11° C 98% 1018.6 hPa 0 mm - 42 W/m² -
1777725500 6.11° C 98% 1018.5 hPa 0 mm - 41 W/m² -
1777725197 5.56° C 98% 1018.4 hPa 0 mm - 52 W/m² -
1777724894 5.56° C 98% 1018.4 hPa 0 mm - 51 W/m² -
1777724590 5.56° C 98% 1018.4 hPa 0 mm - 54 W/m² -
1777724303 5.56° C 98% 1018.3 hPa 0 mm - 48 W/m² -
1777723986 5° C 98% 1018.1 hPa 0 mm - 44 W/m² -
1777723683 5° C 98% 1018.4 hPa 0 mm - 28 W/m² -
1777723379 5° C 98% 1018.3 hPa 0 mm - 19 W/m² -
1777723077 5° C 98% 1018.3 hPa 0 mm - 12 W/m² -
1777722774 5° C 98% 1018.2 hPa 0 mm - 12 W/m² -
1777722469 5° C 98% 1018 hPa 0 mm - 10 W/m² -
1777722167 5° C 98% 1018.2 hPa 0 mm - 9 W/m² -
1777721864 4.44° C 98% 1018.1 hPa 0 mm - 9 W/m² -
1777721562 4.44° C 98% 1018 hPa 0 mm - 8 W/m² -
1777721260 4.44° C 98% 1017.8 hPa 0 mm - 10 W/m² -
1777720957 4.44° C 98% 1017.8 hPa 0 mm - 5 W/m² -

* Rain latest hour (hover to see other rain measurements)
** Current wind speed in m/s (hover to see current wind gust speed)